WX6HNX-3 Weather Reports


time (UTC)temp
C
wind
direction
speed
KPH
gust
KPH
rain 1hr
cm
rain 24hr
cm
rain mn
cm
humidity
%
barometer
mb
20190426094329 20 315 3.2 6.4 0.00 0.00 0.00 48 1012.2
20190426094028 20 315 1.6 9.7 0.00 0.00 0.00 49 1012.3
20190426093728 20 321 3.2 9.7 0.00 0.00 0.00 49 1012.2
20190426093427 20 328 4.8 9.7 0.00 0.00 0.00 49 1012.2
20190426093127 20 320 6.4 11.3 0.00 0.00 0.00 49 1012.2
20190426092826 20 313 6.4 11.3 0.00 0.00 0.00 48 1012.3
20190426092528 20 308 6.4 11.3 0.00 0.00 0.00 47 1012.3
20190426092226 21 308 4.8 11.3 0.00 0.00 0.00 47 1012.3
20190426091926 21 308 6.4 8.0 0.00 0.00 0.00 46 1012.3
20190426091626 21 310 4.8 8.0 0.00 0.00 0.00 46 1012.3
20190426091327 21 312 4.8 8.0 0.00 0.00 0.00 46 1012.4
20190426090729 21 302 4.8 8.0 0.00 0.00 0.00 45 1012.4
20190426090427 21 314 4.8 9.7 0.00 0.00 0.00 45 1012.4
20190426090128 21 322 6.4 9.7 0.00 0.00 0.00 46 1012.4
20190426085829 21 327 6.4 9.7 0.00 0.00 0.00 46 1012.4
20190426085527 21 329 6.4 12.9 0.00 0.00 0.00 46 1012.4
20190426085228 21 328 6.4 12.9 0.00 0.00 0.00 46 1012.5
20190426084929 21 318 8.0 12.9 0.00 0.00 0.00 46 1012.4
20190426084627 21 313 6.4 11.3 0.00 0.00 0.00 45 1012.4
20190426084327 21 313 6.4 11.3 0.00 0.00 0.00 45 1012.5
20190426084029 21 313 4.8 8.0 0.00 0.00 0.00 45 1012.5
20190426083727 21 321 4.8 8.0 0.00 0.00 0.00 45 1012.6
20190426083429 21 324 4.8 8.0 0.00 0.00 0.00 45 1012.5
20190426083129 21 319 6.4 8.0 0.00 0.00 0.00 45 1012.6
20190426082827 21 321 4.8 8.0 0.00 0.00 0.00 45 1012.6
20190426082528 21 320 6.4 8.0 0.00 0.00 0.00 45 1012.6
20190426081627 21 319 4.8 8.0 0.00 0.00 0.00 45 1012.6
20190426081040 21 314 4.8 8.0 0.00 0.00 0.00 44 1012.7
20190426080739 22 305 4.8 6.4 0.00 0.00 0.00 44 1012.7
20190426080439 22 317 4.8 8.0 0.00 0.00 0.00 44 1012.7
20190426075539 22 321 4.8 8.0 0.00 0.00 0.00 44 1012.7
20190426074337 22 327 3.2 8.0 0.00 0.00 0.00 43 1012.7
20190426074039 22 328 4.8 8.0 0.00 0.00 0.00 44 1012.7
20190426073738 22 330 4.8 8.0 0.00 0.00 0.00 43 1012.7
20190426073436 22 323 4.8 8.0 0.00 0.00 0.00 43 1012.7
20190426073136 22 326 4.8 9.7 0.00 0.00 0.00 43 1012.7
20190426072238 22 324 6.4 9.7 0.00 0.00 0.00 43 1012.7
20190426071936 22 328 4.8 9.7 0.00 0.00 0.00 43 1012.7
20190426071636 22 329 4.8 9.7 0.00 0.00 0.00 43 1012.7
20190426071337 22 321 6.4 9.7 0.00 0.00 0.00 43 1012.7
20190426070739 22 318 4.8 8.0 0.00 0.00 0.00 42 1012.7
20190426070437 22 318 4.8 8.0 0.00 0.00 0.00 42 1012.7
20190426070140 22 320 4.8 8.0 0.00 0.00 0.00 42 1012.6
20190426065837 22 323 6.4 8.0 0.00 0.00 0.00 42 1012.6
20190426065539 22 324 4.8 8.0 0.00 0.00 0.00 42 1012.6
20190426065238 22 317 4.8 8.0 0.00 0.00 0.00 42 1012.6
20190426064643 22 325 3.2 8.0 0.00 0.00 0.00 41 1012.6
20190426064336 22 324 4.8 8.0 0.00 0.00 0.00 41 1012.5
20190426063739 22 329 3.2 6.4 0.00 0.00 0.00 41 1012.5
20190426063137 23 314 4.8 6.4 0.00 0.00 0.00 41 1012.5
20190426062836 23 326 3.2 4.8 0.00 0.00 0.00 41 1012.5
20190426062238 23 326 3.2 6.4 0.00 0.00 0.00 42 1012.5
20190426061939 23 323 3.2 6.4 0.00 0.00 0.00 42 1012.5
20190426061337 23 335 3.2 6.4 0.00 0.00 0.00 43 1012.5
20190426061043 23 340 3.2 4.8 0.00 0.00 0.00 43 1012.4
20190426060436 23 0 0.0 4.8 0.00 0.00 0.00 44 1012.4
20190426060141 23 340 3.2 4.8 0.00 0.00 0.00 44 1012.4
20190426055744 23 332 1.6 4.8 0.00 0.00 0.00 45 1012.5
20190426055334 23 329 3.2 4.8 0.00 0.00 0.00 45 1012.5
20190426054433 23 334 3.2 4.8 0.00 0.00 0.00 45 1012.5
20190426054133 23 335 1.6 4.8 0.00 0.00 0.00 45 1012.5
20190426053832 23 335 1.6 4.8 0.00 0.00 0.00 45 1012.5
20190426053532 23 335 1.6 6.4 0.00 0.00 0.00 45 1012.4
20190426052932 23 327 1.6 6.4 0.00 0.00 0.00 45 1012.4
20190426052334 23 330 4.8 6.4 0.00 0.00 0.00 44 1012.4
20190426051732 24 305 3.2 8.0 0.00 0.00 0.00 44 1012.4
20190426051432 24 300 4.8 8.0 0.00 0.00 0.00 43 1012.3
20190426050834 25 289 4.8 8.0 0.00 0.00 0.00 43 1012.3
20190426050232 25 289 3.2 8.0 0.00 0.00 0.00 43 1012.3
20190426045933 25 289 3.2 8.0 0.00 0.00 0.00 42 1012.3
20190426044643 25 299 4.8 11.3 0.00 0.00 0.00 43 1012.2
20190426044343 25 306 4.8 11.3 0.00 0.00 0.00 43 1012.2
20190426044045 25 301 4.8 11.3 0.00 0.00 0.00 43 1012.2
20190426043745 25 322 4.8 8.0 0.00 0.00 0.00 43 1012.1
20190426043145 26 325 3.2 6.4 0.00 0.00 0.00 43 1012.1
20190426042843 26 320 3.2 9.7 0.00 0.00 0.00 43 1012.1
20190426042543 26 298 3.2 9.7 0.00 0.00 0.00 43 1012.1
20190426042243 26 301 3.2 9.7 0.00 0.00 0.00 43 1012.1
20190426041946 26 296 4.8 9.7 0.00 0.00 0.00 43 1012.1
20190426041644 26 319 6.4 8.0 0.00 0.00 0.00 41 1012.0
20190426041343 26 313 4.8 8.0 0.00 0.00 0.00 42 1012.0
20190426041047 26 315 4.8 6.4 0.00 0.00 0.00 42 1011.9
20190426040744 26 323 3.2 6.4 0.00 0.00 0.00 41 1011.9
20190426040444 27 323 1.6 9.7 0.00 0.00 0.00 40 1011.9
20190426040143 27 323 1.6 9.7 0.00 0.00 0.00 40 1011.8
20190426035543 27 322 4.8 12.9 0.00 0.00 0.00 39 1011.8
20190426035243 27 327 6.4 12.9 0.00 0.00 0.00 39 1011.7
20190426034943 27 322 6.4 12.9 0.00 0.00 0.00 39 1011.7
20190426034643 27 318 6.4 12.9 0.00 0.00 0.00 39 1011.6
20190426034343 28 313 6.4 12.9 0.00 0.00 0.00 39 1011.6
20190426034043 28 306 6.4 11.3 0.00 0.00 0.00 38 1011.6
20190426033745 28 303 6.4 11.3 0.00 0.00 0.00 38 1011.6
20190426033446 28 310 6.4 11.3 0.00 0.00 0.00 38 1011.5
20190426033023 28 311 8.0 12.9 0.00 0.00 0.00 38 1011.4
20190426032423 28 304 8.0 12.9 0.00 0.00 0.00 38 1011.3
20190426032122 28 306 8.0 12.9 0.00 0.00 0.00 38 1011.3
20190426031822 28 318 4.8 12.9 0.00 0.00 0.00 38 1011.3
20190426031523 29 308 8.0 12.9 0.00 0.00 0.00 38 1011.2
20190426031222 29 299 8.0 14.5 0.00 0.00 0.00 38 1011.2
20190426030922 29 300 6.4 16.1 0.00 0.00 0.00 37 1011.1
20190426030622 30 327 8.0 16.1 0.00 0.00 0.00 37 1011.1
20190426030323 30 346 6.4 16.1 0.00 0.00 0.00 37 1011.0
20190426030024 30 12 8.0 16.1 0.00 0.00 0.00 36 1011.0
20190426025724 30 16 6.4 16.1 0.00 0.00 0.00 37 1010.9
20190426025424 30 17 8.0 16.1 0.00 0.00 0.00 37 1010.9
20190426025126 30 18 8.0 14.5 0.00 0.00 0.00 36 1010.8
20190426024524 30 23 11.3 14.5 0.00 0.00 0.00 36 1010.8
20190426023924 31 15 4.8 14.5 0.00 0.00 0.00 36 1010.8
20190426023622 31 5 9.7 14.5 0.00 0.00 0.00 36 1010.7
20190426023325 31 13 6.4 12.9 0.00 0.00 0.00 36 1010.7
20190426023023 31 15 6.4 17.7 0.00 0.00 0.00 36 1010.6
20190426022724 31 25 6.4 17.7 0.00 0.00 0.00 36 1010.6
20190426022423 31 22 4.8 19.3 0.00 0.00 0.00 35 1010.6
20190426022123 31 37 8.0 22.5 0.00 0.00 0.00 35 1010.6
20190426021522 32 30 12.9 22.5 0.00 0.00 0.00 34 1010.6
20190426021223 32 22 8.0 19.3 0.00 0.00 0.00 35 1010.6
20190426015809 32 359 8.0 14.5 0.00 0.00 0.00 34 1010.4
20190426015509 32 6 8.0 14.5 0.00 0.00 0.00 34 1010.5
20190426015210 32 10 8.0 14.5 0.00 0.00 0.00 34 1010.5
20190426014609 32 19 4.8 14.5 0.00 0.00 0.00 34 1010.5
20190426014013 32 17 3.2 14.5 0.00 0.00 0.00 34 1010.5
20190426013705 32 37 8.0 14.5 0.00 0.00 0.00 33 1010.4
20190426013405 32 25 8.0 16.1 0.00 0.00 0.00 33 1010.4
20190426013104 32 60 6.4 16.1 0.00 0.00 0.00 34 1010.4
20190426012809 32 55 8.0 16.1 0.00 0.00 0.00 34 1010.4
20190426012505 32 59 9.7 16.1 0.00 0.00 0.00 34 1010.3
20190426012205 33 59 8.0 14.5 0.00 0.00 0.00 33 1010.4
20190426011755 33 29 11.3 17.7 0.00 0.00 0.00 33 1010.3
20190426011454 33 44 6.4 12.9 0.00 0.00 0.00 33 1010.3
20190426011154 32 33 3.2 12.9 0.00 0.00 0.00 32 1010.3
20190426010854 32 25 4.8 14.5 0.00 0.00 0.00 34 1010.4
20190426010553 32 62 4.8 14.5 0.00 0.00 0.00 33 1010.4
20190426010253 32 57 8.0 14.5 0.00 0.00 0.00 34 1010.4
20190426005954 32 78 9.7 14.5 0.00 0.00 0.00 33 1010.3
20190426005654 32 89 4.8 9.7 0.00 0.00 0.00 33 1010.3
20190426005353 32 87 4.8 14.5 0.00 0.00 0.00 33 1010.3
20190426005053 32 61 4.8 14.5 0.00 0.00 0.00 33 1010.4
20190426004753 32 57 4.8 14.5 0.00 0.00 0.00 33 1010.4
20190426004154 32 24 3.2 12.9 0.00 0.00 0.00 33 1010.4
20190426003734 32 33 6.4 14.5 0.00 0.00 0.00 33 1010.3
20190426003434 32 28 8.0 14.5 0.00 0.00 0.00 34 1010.3
20190426003137 32 37 8.0 14.5 0.00 0.00 0.00 33 1010.3
20190426002834 32 59 8.0 17.7 0.00 0.00 0.00 33 1010.3
20190426002534 33 47 8.0 17.7 0.00 0.00 0.00 33 1010.4
20190426002235 33 53 6.4 20.9 0.00 0.00 0.00 33 1010.4
20190426001934 33 49 9.7 20.9 0.00 0.00 0.00 33 1010.4
20190426001634 33 19 9.7 20.9 0.00 0.00 0.00 32 1010.4
20190426001335 33 18 6.4 17.7 0.00 0.00 0.00 31 1010.3
20190426001035 33 31 8.0 17.7 0.00 0.00 0.00 30 1010.4
20190426000434 34 77 11.3 17.7 0.00 0.00 0.00 30 1010.4
20190426000137 35 69 3.2 12.9 0.00 0.00 0.00 30 1010.5
20190425235834 35 0 0.0 11.3 0.00 0.00 0.00 31 1010.5
20190425235535 35 69 6.4 11.3 0.00 0.00 0.00 30 1010.5
20190425235234 34 0 0.0 9.7 0.00 0.00 0.00 31 1010.4
20190425234934 34 0 0.0 9.7 0.00 0.00 0.00 34 1010.4
20190425234634 33 152 3.2 9.7 0.00 0.00 0.00 34 1010.5
20190425234334 33 142 4.8 8.0 0.00 0.00 0.00 32 1010.5
20190425234034 33 107 3.2 8.0 0.00 0.00 0.00 32 1010.5
20190425233734 33 31 1.6 16.1 0.00 0.00 0.00 32 1010.7
20190425233434 33 95 1.6 16.1 0.00 0.00 0.00 33 1010.6
20190425233134 33 336 4.8 16.1 0.00 0.00 0.00 35 1010.6
20190425232834 33 308 8.0 16.1 0.00 0.00 0.00 32 1010.6
20190425232534 33 331 6.4 22.5 0.00 0.00 0.00 34 1010.5
20190425232235 32 44 3.2 22.5 0.00 0.00 0.00 32 1010.5
20190425231934 32 103 6.4 22.5 0.00 0.00 0.00 32 1010.6
20190425231334 33 40 9.7 19.3 0.00 0.00 0.00 32 1010.6
20190425231034 33 12 6.4 9.7 0.00 0.00 0.00 33 1010.6
20190425230734 33 57 3.2 8.0 0.00 0.00 0.00 32 1010.6
20190425230435 33 42 4.8 12.9 0.00 0.00 0.00 32 1010.6
20190425230135 32 29 1.6 12.9 0.00 0.00 0.00 32 1010.6
20190425225834 32 29 1.6 12.9 0.00 0.00 0.00 32 1010.8
20190425225234 32 92 1.6 12.9 0.00 0.00 0.00 32 1010.9
20190425224935 32 91 3.2 12.9 0.00 0.00 0.00 32 1010.7
20190425224634 32 76 6.4 12.9 0.00 0.00 0.00 32 1010.8
20190425224335 32 73 4.8 12.9 0.00 0.00 0.00 33 1010.7
20190425224035 32 94 3.2 12.9 0.00 0.00 0.00 32 1011.0
20190425223735 32 102 6.4 12.9 0.00 0.00 0.00 32 1011.0
20190425223438 32 82 4.8 12.9 0.00 0.00 0.00 32 1011.0
20190425223134 32 82 1.6 12.9 0.00 0.00 0.00 32 1011.0
20190425222534 33 185 8.0 17.7 0.00 0.00 0.00 34 1011.0
20190425222234 33 212 4.8 17.7 0.00 0.00 0.00 31 1011.0
20190425221936 33 174 8.0 17.7 0.00 0.00 0.00 33 1011.1
20190425221634 34 151 9.7 19.3 0.00 0.00 0.00 31 1011.1
20190425221334 34 144 11.3 20.9 0.00 0.00 0.00 31 1011.2
20190425221035 35 150 8.0 20.9 0.00 0.00 0.00 31 1011.1
20190425220734 35 134 12.9 20.9 0.00 0.00 0.00 31 1011.2
20190425220434 35 142 9.7 19.3 0.00 0.00 0.00 31 1011.2
20190425220134 35 155 6.4 16.1 0.00 0.00 0.00 30 1011.3
20190425215834 35 149 9.7 19.3 0.00 0.00 0.00 33 1011.3
20190425215536 35 126 4.8 19.3 0.00 0.00 0.00 31 1011.4
20190425215234 35 127 6.4 19.3 0.00 0.00 0.00 32 1011.4
20190425214935 35 90 9.7 14.5 0.00 0.00 0.00 30 1011.2
20190425214636 35 148 8.0 17.7 0.00 0.00 0.00 34 1011.3
20190425214334 34 125 6.4 17.7 0.00 0.00 0.00 31 1011.6
20190425214035 34 119 11.3 17.7 0.00 0.00 0.00 31 1011.6
20190425213734 34 144 9.7 16.1 0.00 0.00 0.00 32 1011.6
20190425213434 33 127 3.2 8.0 0.00 0.00 0.00 33 1011.6
20190425213134 33 151 3.2 11.3 0.00 0.00 0.00 32 1011.6
20190425212834 33 178 1.6 11.3 0.00 0.00 0.00 33 1011.6
20190425212534 33 249 3.2 11.3 0.00 0.00 0.00 32 1011.6
20190425212235 33 12 1.6 11.3 0.00 0.00 0.00 32 1011.9
20190425211936 33 39 6.4 14.5 0.00 0.00 0.00 32 1011.7
20190425211635 33 0 0.0 14.5 0.00 0.00 0.00 34 1011.6
20190425211334 33 69 1.6 14.5 0.00 0.00 0.00 34 1011.7
20190425210734 33 0 0.0 14.5 0.00 0.00 0.00 32 1011.8
20190425210438 33 34 4.8 19.3 0.00 0.00 0.00 34 1011.8
20190425210134 33 18 4.8 19.3 0.00 0.00 0.00 33 1011.9
20190425205834 33 15 6.4 19.3 0.00 0.00 0.00 33 1011.9
20190425205535 33 40 8.0 14.5 0.00 0.00 0.00 34 1011.8
20190425205235 33 29 8.0 16.1 0.00 0.00 0.00 35 1011.9
20190425204635 33 80 8.0 17.7 0.00 0.00 0.00 33 1011.9
20190425204336 33 15 8.0 22.5 0.00 0.00 0.00 34 1011.9
20190425204034 33 329 11.3 22.5 0.00 0.00 0.00 32 1011.9
20190425203734 33 3 12.9 22.5 0.00 0.00 0.00 33 1012.0
20190425203444 33 116 11.3 17.7 0.00 0.00 0.00 33 1011.9
20190425202834 33 83 11.3 32.2 0.00 0.00 0.00 34 1012.0
20190425202536 33 102 11.3 32.2 0.00 0.00 0.00 34 1012.1
20190425202233 33 54 6.4 19.3 0.00 0.00 0.00 33 1012.0
20190425201936 33 97 9.7 27.4 0.00 0.00 0.00 34 1012.0
20190425201634 33 108 8.0 27.4 0.00 0.00 0.00 35 1011.9
20190425201334 33 101 11.3 27.4 0.00 0.00 0.00 35 1012.0
20190425201033 33 213 17.7 24.1 0.00 0.00 0.00 35 1011.9
20190425200733 32 263 6.4 14.5 0.00 0.00 0.00 33 1012.1
20190425200435 32 322 4.8 14.5 0.00 0.00 0.00 34 1012.1
20190425200134 32 348 8.0 16.1 0.00 0.00 0.00 35 1012.1
20190425195233 33 13 9.7 14.5 0.00 0.00 0.00 35 1012.1
20190425194935 33 30 4.8 12.9 0.00 0.00 0.00 35 1012.1
20190425194634 32 168 3.2 8.0 0.00 0.00 0.00 35 1012.2
20190425193917 32 3 6.4 14.5 0.00 0.00 0.00 33 1012.3
20190425193616 33 357 3.2 11.3 0.00 0.00 0.00 36 1012.4
20190425193317 33 294 3.2 14.5 0.00 0.00 0.00 32 1012.3
20190425193017 33 193 1.6 14.5 0.00 0.00 0.00 33 1012.4
20190425192717 33 135 4.8 14.5 0.00 0.00 0.00 33 1012.4
20190425192416 33 131 8.0 14.5 0.00 0.00 0.00 35 1012.5
20190425192117 32 146 1.6 11.3 0.00 0.00 0.00 34 1012.5
20190425191816 32 146 1.6 11.3 0.00 0.00 0.00 35 1012.5
20190425191517 32 147 1.6 11.3 0.00 0.00 0.00 35 1012.6
20190425191219 32 182 4.8 12.9 0.00 0.00 0.00 35 1012.6
20190425190916 32 161 3.2 12.9 0.00 0.00 0.00 34 1012.6
20190425190616 32 187 4.8 12.9 0.00 0.00 0.00 36 1012.7
20190425190317 32 179 3.2 8.0 0.00 0.00 0.00 35 1012.7
20190425190018 32 22 3.2 8.0 0.00 0.00 0.00 35 1012.9
20190425185720 32 0 0.0 8.0 0.00 0.00 0.00 35 1012.7
20190425185416 32 193 4.8 9.7 0.00 0.00 0.00 35 1012.8
20190425185117 32 172 1.6 9.7 0.00 0.00 0.00 36 1012.8
20190425184816 31 185 3.2 9.7 0.00 0.00 0.00 38 1013.0
20190425184517 31 188 3.2 9.7 0.00 0.00 0.00 38 1012.9
20190425184220 31 225 3.2 12.9 0.00 0.00 0.00 36 1013.0
20190425183916 31 299 1.6 12.9 0.00 0.00 0.00 37 1013.0
20190425183617 31 260 3.2 12.9 0.00 0.00 0.00 37 1013.0
20190425183317 31 287 9.7 12.9 0.00 0.00 0.00 36 1012.9
20190425183017 31 286 6.4 11.3 0.00 0.00 0.00 36 1013.1
20190425182717 31 0 0.0 8.0 0.00 0.00 0.00 36 1013.1
20190425182418 31 0 0.0 8.0 0.00 0.00 0.00 37 1013.2
20190425182116 31 0 0.0 8.0 0.00 0.00 0.00 37 1013.2
20190425181817 31 184 1.6 9.7 0.00 0.00 0.00 39 1013.2
20190425181519 31 193 4.8 9.7 0.00 0.00 0.00 37 1013.3
20190425181216 31 169 3.2 12.9 0.00 0.00 0.00 38 1013.2
20190425180916 31 190 3.2 12.9 0.00 0.00 0.00 41 1013.2
20190425180617 31 197 4.8 12.9 0.00 0.00 0.00 39 1013.3
20190425180317 31 186 4.8 12.9 0.00 0.00 0.00 41 1013.3
20190425180017 30 0 0.0 6.4 0.00 0.00 0.00 40 1013.4
20190425175725 30 57 3.2 6.4 0.00 0.00 0.00 39 1013.4
20190425175417 30 53 3.2 11.3 0.00 0.00 0.00 41 1013.4
20190425175116 30 306 1.6 11.3 0.00 0.00 0.00 40 1013.3
20190425174817 30 301 3.2 11.3 0.00 0.00 0.00 39 1013.3
20190425174517 30 312 4.8 11.3 0.00 0.00 0.00 40 1013.4
20190425174217 30 327 4.8 8.0 0.00 0.00 0.00 40 1013.3
20190425173720 30 302 3.2 11.3 0.00 0.00 0.00 39 1013.3
20190425173421 30 273 4.8 11.3 0.00 0.00 0.00 39 1013.3
20190425173120 30 285 1.6 6.4 0.00 0.00 0.00 39 1013.3
20190425172520 30 280 4.8 9.7 0.00 0.00 0.00 40 1013.3
20190425172219 30 0 0.0 12.9 0.00 0.00 0.00 41 1013.4
20190425171919 30 281 1.6 12.9 0.00 0.00 0.00 41 1013.3
20190425171619 30 243 4.8 12.9 0.00 0.00 0.00 40 1013.3
20190425171320 29 248 3.2 9.7 0.00 0.00 0.00 40 1013.3
20190425171019 29 221 1.6 8.0 0.00 0.00 0.00 42 1013.2
20190425170720 29 208 3.2 8.0 0.00 0.00 0.00 42 1013.2
20190425170420 29 223 4.8 8.0 0.00 0.00 0.00 41 1013.3
20190425170120 29 223 3.2 8.0 0.00 0.00 0.00 43 1013.3
20190425165821 29 224 1.6 4.8 0.00 0.00 0.00 42 1013.3
20190425165520 29 0 0.0 4.8 0.00 0.00 0.00 42 1013.3
20190425165220 28 0 0.0 3.2 0.00 0.00 0.00 43 1013.3
20190425164919 28 0 0.0 3.2 0.00 0.00 0.00 43 1013.3
20190425164107 28 274 4.8 9.7 0.00 0.00 0.00 42 1013.2
20190425163807 28 287 3.2 6.4 0.00 0.00 0.00 43 1013.2
20190425163511 28 287 3.2 6.4 0.00 0.00 0.00 42 1013.2
20190425163208 28 0 0.0 6.4 0.00 0.00 0.00 44 1013.2
20190425162908 28 294 1.6 6.4 0.00 0.00 0.00 44 1013.3
20190425162609 28 4 3.2 6.4 0.00 0.00 0.00 45 1013.3
20190425162307 28 0 0.0 6.4 0.00 0.00 0.00 44 1013.3
20190425162007 27 310 1.6 6.4 0.00 0.00 0.00 44 1013.2
20190425161707 27 306 3.2 8.0 0.00 0.00 0.00 45 1013.3
20190425161407 27 352 1.6 8.0 0.00 0.00 0.00 45 1013.2
20190425161109 27 355 3.2 8.0 0.00 0.00 0.00 45 1013.4
20190425160807 27 310 3.2 8.0 0.00 0.00 0.00 46 1013.3
20190425160231 27 303 3.2 8.0 0.00 0.00 0.00 46 1013.2
20190425155931 27 279 1.6 8.0 0.00 0.00 0.00 46 1013.2
20190425155630 26 329 3.2 8.0 0.00 0.00 0.00 47 1013.2
20190425155331 26 358 3.2 8.0 0.00 0.00 0.00 48 1013.2
20190425155029 26 322 3.2 8.0 0.00 0.00 0.00 47 1013.3
20190425154431 26 284 4.8 6.4 0.00 0.00 0.00 48 1013.2
20190425154130 26 298 3.2 8.0 0.00 0.00 0.00 48 1013.1
20190425153834 26 310 3.2 8.0 0.00 0.00 0.00 48 1013.2
20190425153531 26 308 1.6 8.0 0.00 0.00 0.00 48 1013.2
20190425153234 26 305 4.8 8.0 0.00 0.00 0.00 48 1013.2
20190425152933 25 293 3.2 6.4 0.00 0.00 0.00 49 1013.2
20190425152630 25 300 1.6 6.4 0.00 0.00 0.00 49 1013.3
20190425152333 25 355 1.6 4.8 0.00 0.00 0.00 50 1013.3
20190425152029 25 355 1.6 4.8 0.00 0.00 0.00 50 1013.2
20190425151731 25 355 1.6 4.8 0.00 0.00 0.00 51 1013.2
20190425151431 25 355 1.6 4.8 0.00 0.00 0.00 54 1013.2
20190425151131 25 355 1.6 4.8 0.00 0.00 0.00 55 1013.2
20190425150530 24 355 1.6 4.8 0.00 0.00 0.00 55 1013.3
20190425150231 23 355 1.6 4.8 0.00 0.00 0.00 57 1013.3
20190425145931 23 355 1.6 4.8 0.00 0.00 0.00 57 1013.3
20190425145630 23 355 1.6 4.8 0.00 0.00 0.00 58 1013.3
20190425145334 23 355 1.6 6.4 0.00 0.00 0.00 58 1013.3
20190425145031 22 355 3.2 6.4 0.00 0.00 0.00 59 1013.2
20190425144730 22 354 3.2 6.4 0.00 0.00 0.00 60 1013.2
20190425144433 22 335 3.2 6.4 0.00 0.00 0.00 61 1013.3
20190425144132 22 316 1.6 4.8 0.00 0.00 0.00 62 1013.3
20190425143830 21 309 1.6 6.4 0.00 0.00 0.00 62 1013.2
20190425143530 21 306 1.6 6.4 0.00 0.00 0.00 63 1013.2
20190425143230 21 315 3.2 6.4 0.00 0.00 0.00 64 1013.2
20190425142630 20 340 3.2 4.8 0.00 0.00 0.00 67 1013.1
20190425142331 20 340 1.6 4.8 0.00 0.00 0.00 68 1013.1
20190425142029 19 340 3.2 4.8 0.00 0.00 0.00 69 1013.1
20190425141730 18 340 1.6 4.8 0.00 0.00 0.00 70 1013.1
20190425141431 18 340 3.2 4.8 0.00 0.00 0.00 68 1013.1
20190425141130 18 340 1.6 3.2 0.00 0.00 0.00 67 1013.0
20190425140831 18 0 0.0 3.2 0.00 0.00 0.00 66 1013.0
20190425140531 18 0 0.0 3.2 0.00 0.00 0.00 68 1012.9
20190425140230 18 340 1.6 3.2 0.00 0.00 0.00 67 1012.9
20190425135930 18 340 1.6 3.2 0.00 0.00 0.00 66 1012.9
20190425135330 18 340 1.6 4.8 0.00 0.00 0.00 65 1012.8
20190425135031 18 340 1.6 4.8 0.00 0.00 0.00 66 1012.8
20190425134730 18 340 1.6 4.8 0.00 0.00 0.00 66 1012.8
20190425134431 18 340 1.6 4.8 0.00 0.00 0.00 66 1012.8
20190425133926 18 340 3.2 6.4 0.00 0.00 0.00 68 1012.8
20190425133626 18 340 3.2 9.7 0.00 0.00 0.00 69 1012.7
20190425133327 18 341 4.8 9.7 0.00 0.00 0.00 69 1012.6
20190425133030 18 340 4.8 9.7 0.00 0.00 0.00 69 1012.6
20190425132427 17 331 4.8 8.0 0.00 0.00 0.00 70 1012.5
20190425132127 17 342 4.8 8.0 0.00 0.00 0.00 72 1012.6
20190425131827 17 344 4.8 8.0 0.00 0.00 0.00 72 1012.6
20190425131529 17 320 3.2 6.4 0.00 0.00 0.00 70 1012.5
20190425131229 17 301 3.2 6.4 0.00 0.00 0.00 69 1012.5
20190425130928 17 298 3.2 6.4 0.00 0.00 0.00 69 1012.5
20190425130627 17 296 3.2 4.8 0.00 0.00 0.00 69 1012.5
20190425130328 17 296 3.2 4.8 0.00 0.00 0.00 69 1012.4
20190425130027 17 297 1.6 4.8 0.00 0.00 0.00 70 1012.4
20190425125726 18 297 1.6 4.8 0.00 0.00 0.00 69 1012.4
20190425125429 18 297 1.6 4.8 0.00 0.00 0.00 70 1012.4
20190425125126 18 296 3.2 4.8 0.00 0.00 0.00 70 1012.4
20190425124826 18 296 1.6 4.8 0.00 0.00 0.00 70 1012.3
20190425124527 18 295 1.6 4.8 0.00 0.00 0.00 70 1012.4
20190425124227 17 294 3.2 6.4 0.00 0.00 0.00 70 1012.3
20190425123928 17 294 1.6 6.4 0.00 0.00 0.00 69 1012.3
20190425123630 17 294 3.2 6.4 0.00 0.00 0.00 69 1012.3
20190425123327 17 305 1.6 4.8 0.00 0.00 0.00 68 1012.3
20190425123026 17 305 1.6 4.8 0.00 0.00 0.00 67 1012.3
20190425122726 17 305 1.6 4.8 0.00 0.00 0.00 68 1012.3
20190425122428 17 304 3.2 4.8 0.00 0.00 0.00 66 1012.3
20190425122131 17 304 3.2 4.8 0.00 0.00 0.00 67 1012.2
20190425121829 17 317 3.2 4.8 0.00 0.00 0.00 66 1012.2
20190425121527 17 318 3.2 4.8 0.00 0.00 0.00 66 1012.2
20190425120954 17 319 1.6 3.2 0.00 0.00 0.00 66 1012.2
20190425120654 17 0 0.0 3.2 0.00 0.00 0.00 65 1012.2
20190425120354 17 0 0.0 3.2 0.00 0.00 0.00 65 1012.2
20190425120053 17 0 0.0 3.2 0.00 0.00 0.00 65 1012.2
20190425115753 17 319 1.6 4.8 0.00 0.00 0.00 64 1012.2
20190425115154 17 319 1.6 4.8 0.00 0.00 0.00 65 1012.3
20190425114853 17 319 1.6 4.8 0.00 0.00 0.00 63 1012.3
20190425114554 18 0 0.0 1.6 0.00 0.00 0.00 60 1012.3
20190425114254 18 0 0.0 4.8 0.00 0.00 0.00 62 1012.3
20190425113954 18 0 0.0 4.8 0.00 0.00 0.00 68 1012.3
20190425113657 18 0 0.0 4.8 0.00 0.00 0.00 68 1012.3
20190425113353 18 312 3.2 4.8 0.00 0.00 0.00 69 1012.3
20190425112849 18 0 0.0 3.2 0.00 0.00 0.00 68 1012.3
20190425112547 18 306 1.6 3.2 0.00 0.00 0.00 68 1012.3
20190425112247 17 0 0.0 1.6 0.00 0.00 0.00 68 1012.3
20190425111946 17 0 0.0 1.6 0.00 0.00 0.00 66 1012.3
20190425111646 17 0 0.0 0.0 0.00 0.00 0.00 64 1012.2
20190425111347 17 0 0.0 0.0 0.00 0.00 0.00 64 1012.2
20190425111046 17 0 0.0 0.0 0.00 0.00 0.00 64 1012.2
20190425110746 17 0 0.0 0.0 0.00 0.00 0.00 63 1012.2
20190425110446 18 0 0.0 0.0 0.00 0.00 0.00 62 1012.2
20190425110147 18 0 0.0 0.0 0.00 0.00 0.00 62 1012.2
20190425105149 18 0 0.0 4.8 0.00 0.00 0.00 61 1012.2
20190425104849 18 0 0.0 4.8 0.00 0.00 0.00 60 1012.2
20190425104550 18 0 0.0 4.8 0.00 0.00 0.00 60 1012.1
20190425104250 19 305 3.2 6.4 0.00 0.00 0.00 60 1012.1
20190425103950 19 306 3.2 6.4 0.00 0.00 0.00 60 1012.1
20190425103649 19 308 3.2 6.4 0.00 0.00 0.00 61 1012.1
20190425103349 19 335 3.2 6.4 0.00 0.00 0.00 63 1012.1
20190425103050 19 341 3.2 6.4 0.00 0.00 0.00 62 1012.2
20190425102751 18 341 3.2 6.4 0.00 0.00 0.00 64 1012.2
20190425102450 18 341 3.2 4.8 0.00 0.00 0.00 65 1012.2
20190425102149 18 341 3.2 4.8 0.00 0.00 0.00 60 1012.2
20190425101851 18 341 3.2 6.4 0.00 0.00 0.00 58 1012.2
20190425101549 18 341 3.2 6.4 0.00 0.00 0.00 58 1012.2
20190425101254 19 341 3.2 6.4 0.00 0.00 0.00 65 1012.2
20190425100949 18 341 3.2 6.4 0.00 0.00 0.00 66 1012.2
20190425100650 18 342 3.2 6.4 0.00 0.00 0.00 65 1012.1
20190425100350 18 333 3.2 6.4 0.00 0.00 0.00 61 1012.1
20190425100049 18 350 4.8 6.4 0.00 0.00 0.00 60 1012.1
20190425095750 18 355 3.2 4.8 0.00 0.00 0.00 61 1012.1
20190425095449 18 355 1.6 3.2 0.00 0.00 0.00 61 1012.0
20190425095149 19 0 0.0 0.0 0.00 0.00 0.00 60 1012.1
20190425094850 19 0 0.0 0.0 0.00 0.00 0.00 58 1012.1